GEFSMW_500_meanwind_306.txt.gz
Wind_Speed
36 37 38 40 40 41 41 41 40 40 40 40 40 41 42 42 43 43 43 44 44 43 43 42 43 43 44 44 44 44 45 45 45 45 44 44 44 44 44 44 44 43 43
35 36 36 38 39 40 41 41 41 41 41 41 41 42 42 42 43 43 43 43 44 44 43 43 43 43 44 44 44 45 45 45 46 46 45 45 45 45 45 44 44 43 43
34 35 35 36 38 39 39 40 41 41 41 41 41 42 42 42 42 42 43 43 43 44 43 43 44 44 44 44 44 45 45 45 45 45 46 45 44 44 44 45 45 44 43
33 34 35 36 37 38 39 39 40 41 41 42 41 42 42 42 42 42 42 43 43 44 43 43 44 44 44 44 44 44 44 44 44 45 45 45 45 44 43 43 44 44 43
32 33 34 35 36 36 37 38 39 39 40 41 40 40 40 40 40 41 41 42 42 42 42 43 42 43 43 44 44 45 45 45 45 45 45 44 44 44 44 42 42 42 43
29 31 33 34 35 36 36 37 38 38 39 39 39 39 39 39 39 40 40 41 41 41 41 42 43 43 44 44 44 45 45 44 44 43 43 44 43 43 43 42 41 41 42
28 30 31 33 34 36 36 37 37 37 37 37 37 37 38 38 38 38 39 39 39 40 40 41 42 42 43 43 43 42 42 43 42 41 41 42 42 42 42 42 41 42 42
28 30 32 32 33 35 35 35 35 35 36 36 35 36 36 37 37 37 37 38 39 40 41 40 41 41 41 40 41 41 41 40 40 40 40 40 41 40 40 41 41 42 42
26 28 30 30 31 32 33 34 34 34 34 35 35 35 36 36 37 37 38 38 38 39 39 39 39 39 40 40 39 39 39 38 38 39 40 40 41 41 41 42 41 41 42
26 26 27 28 29 30 31 32 32 33 33 34 35 35 35 35 36 37 38 37 37 37 37 38 38 38 38 38 38 37 37 37 38 39 40 40 40 41 41 42 41 41 41
26 26 27 28 29 29 29 30 31 32 32 33 34 35 35 34 35 37 36 36 36 36 36 36 37 37 37 37 37 36 36 36 37 37 38 39 39 40 40 40 40 40 39
26 26 26 27 27 28 28 29 30 30 31 32 33 33 34 34 34 35 36 36 36 35 36 35 36 36 36 36 36 35 35 35 36 36 36 37 38 39 38 38 38 38 38
25 26 26 26 26 27 27 28 28 29 29 31 32 32 33 33 34 34 35 35 36 36 36 35 35 34 34 34 34 34 34 35 35 36 36 35 35 35 36 37 37 37 37
26 26 26 26 26 26 27 28 28 29 29 29 30 31 33 33 33 33 34 35 35 36 36 36 35 34 34 34 33 33 34 34 34 34 34 34 33 33 34 34 34 35 35
27 26 26 26 26 26 27 27 28 29 29 30 30 30 32 33 33 33 34 35 35 35 35 35 34 34 34 33 33 33 33 32 32 33 32 32 32 32 32 32 32 33 33
28 26 25 25 25 25 26 26 28 29 30 30 30 30 30 31 32 32 32 33 34 34 34 34 34 34 33 33 33 32 32 32 31 31 31 31 30 31 31 31 31 31 31
27 26 26 25 25 25 26 26 28 29 30 30 30 30 30 31 31 31 32 32 33 33 34 34 34 34 33 33 32 32 31 31 31 31 31 30 29 30 30 30 30 30 30
27 27 26 26 26 26 27 28 28 29 29 29 30 31 31 31 31 31 31 32 32 32 33 33 34 34 33 33 32 32 32 32 32 32 31 30 29 29 29 30 30 30 31
26 26 27 27 27 27 27 28 28 29 30 30 31 31 31 30 30 31 32 32 32 32 32 32 32 31 32 33 33 32 32 32 31 31 30 30 30 30 30 31 31 31 31
25 26 27 28 28 28 29 29 29 29 29 30 30 30 30 30 30 31 31 32 32 32 32 31 31 31 31 31 32 32 31 30 30 30 30 30 30 30 30 30 30 30 30
27 27 28 29 29 29 30 30 30 29 29 29 30 30 30 30 30 30 30 31 31 31 31 30 30 30 30 30 30 30 30 30 30 30 30 30 29 29 28 28 29 29 29
28 29 30 29 30 31 30 30 29 29 28 28 29 29 29 29 29 30 30 30 31 30 30 29 29 29 29 28 29 29 29 29 28 28 29 28 28 28 28 28 27 27 27
30 31 31 31 31 30 30 29 29 29 29 28 28 28 28 28 28 29 29 29 29 28 28 27 27 28 28 28 28 28 28 28 27 27 27 27 26 26 26 26 26 26 25
30 31 31 30 30 29 28 28 28 28 28 28 28 28 28 28 28 28 28 28 28 27 27 26 26 26 27 28 28 28 28 28 27 27 26 26 26 25 24 25 25 25 25
29 30 30 30 29 28 28 27 27 27 27 27 27 28 28 27 27 28 27 26 26 26 26 25 25 25 26 26 27 27 27 26 26 26 26 26 26 25 24 24 24 24 23
28 28 27 28 28 28 28 27 27 27 26 26 26 26 25 24 25 26 26 25 24 24 24 23 23 23 24 25 26 26 26 25 25 25 25 25 25 24 24 23 23 23 22

GEFSMW_500_meanwind_312.txt.gz
Wind_Speed
32 34 35 36 36 37 38 38 38 38 38 38 38 39 39 39 40 40 41 41 41 41 42 43 43 43 44 44 44 44 44 44 44 44 44 44 45 45 45 44 44 43 44
32 33 35 35 36 37 37 38 38 38 39 39 39 40 40 40 40 40 41 42 42 42 42 43 43 44 44 44 45 45 45 45 45 45 45 45 45 45 44 44 44 43 44
30 31 33 34 35 35 36 37 38 38 38 39 39 40 40 41 41 41 41 42 42 43 43 43 43 44 44 45 45 46 46 46 46 45 45 45 45 45 44 45 45 45 45
29 30 32 33 34 34 36 36 37 37 38 38 39 40 41 41 42 42 42 41 42 42 42 43 43 43 44 45 45 46 47 46 46 45 45 45 45 45 45 46 46 46 46
28 29 30 32 33 34 35 36 37 37 38 38 39 39 40 41 41 41 41 41 41 41 41 42 42 43 44 45 45 45 45 46 46 45 45 45 46 46 47 46 46 46 46
28 28 28 30 32 33 34 35 36 37 37 38 38 39 39 39 39 40 40 40 40 40 41 42 42 43 43 44 43 44 44 45 45 45 45 45 46 46 47 47 46 45 45
28 28 27 28 29 30 32 34 35 36 37 38 38 38 38 38 39 39 40 39 39 40 41 41 42 42 42 43 43 44 44 44 44 44 45 46 46 46 46 46 45 45 45
27 27 27 27 27 28 30 31 33 34 35 36 37 38 38 39 39 40 40 41 40 40 40 40 41 42 42 42 43 44 43 43 44 45 45 44 45 45 45 45 45 45 44
26 26 26 27 28 28 28 29 30 31 33 34 34 35 37 38 39 39 40 41 41 40 40 40 40 40 41 41 42 42 42 43 43 43 43 43 43 42 42 43 43 43 43
25 26 26 26 27 28 28 29 30 32 33 33 34 34 34 34 35 36 37 38 39 40 41 41 40 40 40 40 41 41 41 42 42 42 41 41 41 41 41 41 42 42 42
26 26 26 27 28 28 28 29 30 31 32 33 33 33 34 34 34 35 35 36 38 39 39 39 39 41 41 41 40 40 41 40 40 40 40 40 40 41 41 41 41 41 41
26 27 27 27 28 28 28 29 30 30 31 31 31 32 33 34 34 35 35 36 37 37 37 37 37 38 39 40 40 40 40 40 40 40 40 40 39 39 39 39 40 40 40
28 27 28 28 28 28 28 28 29 30 30 30 30 31 31 32 33 34 35 35 35 36 36 36 36 37 38 38 39 39 39 39 40 39 39 38 38 37 37 37 37 38 38
29 28 28 28 27 27 28 28 28 28 29 29 29 29 30 30 31 32 33 34 34 35 35 36 36 36 36 36 37 38 38 38 39 38 37 36 36 36 35 35 36 36 35
28 28 28 27 27 27 27 27 28 28 28 28 28 29 29 30 31 31 31 32 33 34 34 35 35 35 36 37 37 37 37 38 37 36 35 34 34 34 34 34 34 35 35
27 27 27 27 27 27 27 28 28 28 28 29 29 29 29 30 31 31 32 32 33 33 33 34 34 35 36 36 36 37 36 36 36 36 35 34 34 34 33 33 33 33 34
27 27 27 27 27 28 27 27 27 27 28 28 29 30 30 31 31 32 33 33 33 33 34 34 35 35 36 36 36 36 36 35 35 35 35 35 34 34 33 33 33 33 33
27 27 27 27 28 28 28 27 26 26 27 28 29 29 30 31 31 32 32 33 34 34 34 35 35 35 35 35 35 35 35 34 34 35 34 34 34 33 33 33 33 32 32
27 27 27 28 27 27 27 27 27 27 27 28 28 28 29 30 30 32 32 33 33 34 34 35 34 35 35 35 34 34 34 34 34 33 33 32 32 32 32 32 32 31 31
27 27 27 27 27 27 27 27 28 28 28 28 28 29 30 30 30 31 32 33 33 34 34 34 34 34 34 34 33 33 33 33 32 32 31 30 30 30 30 30 30 29 29
27 27 27 27 27 27 27 28 28 28 29 29 29 29 30 30 30 31 32 33 34 35 35 34 33 33 32 32 32 31 31 30 30 31 31 30 30 30 29 29 28 28 28
27 27 27 27 27 28 28 28 28 28 29 29 29 30 30 30 31 31 32 32 33 33 33 32 32 31 31 31 30 30 29 29 29 29 29 29 28 28 28 28 27 26 27
27 27 26 27 28 28 28 28 28 28 29 29 30 30 30 31 32 31 30 30 30 30 30 30 30 30 30 29 29 28 28 28 28 28 28 27 27 27 27 28 27 27 27
26 26 26 27 28 28 28 29 29 29 29 29 30 30 30 30 30 30 29 29 28 29 29 29 28 28 28 28 28 27 27 27 27 27 27 27 27 27 27 27 27 27 25
25 26 26 27 27 28 28 28 29 29 29 28 28 28 28 28 28 28 27 27 27 27 27 26 26 25 25 25 26 26 25 25 25 25 25 26 26 26 26 26 26 26 25
23 24 25 26 26 27 27 26 27 27 27 26 27 27 27 27 26 25 25 25 25 24 23 22 22 21 22 22 23 23 23 23 23 23 23 23 24 24 24 24 25 25 25

GEFSMW_500_meanwind_318.txt.gz
Wind_Speed
33 33 33 34 34 35 35 37 37 37 37 38 37 37 38 38 38 39 39 40 40 40 40 40 40 40 40 41 42 42 43 43 43 43 43 43 43 42 42 43 43 43 43
32 32 33 33 33 34 35 36 36 37 37 38 38 38 38 39 39 38 39 40 40 40 40 41 42 42 42 42 42 43 43 44 44 44 44 44 44 44 44 44 43 44 44
33 33 32 32 32 34 34 35 36 36 37 38 38 38 38 38 39 39 39 40 40 41 41 42 42 43 43 43 43 44 44 45 45 46 46 45 45 45 44 44 45 45 46
32 33 32 32 32 32 33 34 35 36 37 38 38 38 38 38 39 39 40 39 39 40 40 42 42 43 43 44 44 44 44 45 45 46 46 46 46 46 45 45 46 46 46
32 32 32 32 32 32 33 33 34 35 36 36 37 37 38 38 39 39 40 39 39 39 39 40 41 42 42 43 44 44 45 45 45 45 45 46 46 47 46 46 46 46 47
31 31 31 31 31 32 32 32 33 34 35 36 36 37 37 38 38 38 38 39 40 39 39 39 40 41 42 43 43 44 45 46 45 45 45 45 46 47 47 47 46 46 46
30 31 31 31 31 31 31 32 33 34 35 36 36 36 37 37 38 38 38 39 39 39 40 40 39 39 41 43 44 44 44 45 46 46 46 46 46 47 47 48 47 46 46
30 30 30 30 30 30 31 32 33 34 35 36 37 37 37 38 38 38 38 38 39 40 40 40 40 40 41 42 43 44 44 44 45 46 46 46 46 46 46 47 47 47 46
29 29 30 30 30 30 31 32 32 33 34 35 36 37 38 38 38 39 39 38 38 38 39 39 39 39 40 41 41 42 43 43 44 45 45 45 45 45 46 46 46 46 46
28 29 29 30 30 31 31 32 32 32 33 34 34 35 36 37 37 38 38 38 38 38 39 39 40 40 40 40 41 41 41 42 43 44 44 44 44 44 45 45 45 45 45
29 29 29 30 30 31 31 32 32 32 33 33 34 34 35 35 36 37 38 38 39 39 39 40 40 40 40 40 40 41 41 41 41 42 43 43 43 44 44 45 45 44 44
30 30 30 30 30 30 31 31 32 32 33 33 33 34 34 34 35 35 36 37 38 39 39 39 39 39 39 40 39 39 40 40 40 41 42 43 43 43 43 43 43 43 43
30 30 30 30 30 30 31 32 32 33 33 33 33 34 34 34 35 35 35 36 36 37 37 38 38 38 38 38 38 38 39 40 40 41 41 40 40 41 42 42 41 42 42
30 30 30 30 30 31 31 31 32 32 33 33 33 34 34 33 34 35 35 35 35 35 36 37 37 37 38 38 38 39 39 39 40 39 40 39 40 40 40 41 41 41 41
30 30 31 31 31 31 31 31 32 32 33 33 34 34 34 34 34 34 35 35 35 36 36 36 37 37 38 38 38 38 39 39 39 39 39 39 39 40 40 40 40 40 39
31 31 31 31 31 31 32 32 32 33 33 34 34 34 34 34 34 34 34 35 35 35 36 36 37 37 37 38 38 38 39 39 38 38 38 39 40 40 40 39 39 38 37
31 31 31 30 31 31 31 32 32 32 32 33 33 33 33 33 33 33 33 34 35 35 35 35 36 37 37 37 38 38 37 37 38 38 38 39 39 38 38 38 38 37 37
31 31 31 31 31 31 31 31 31 31 32 32 32 31 32 32 32 32 32 33 34 34 34 35 35 36 36 36 36 35 35 35 36 36 36 36 36 36 36 36 36 35 34
32 32 31 31 30 30 30 31 31 31 31 32 32 31 32 32 32 32 33 33 33 34 34 34 35 35 34 34 34 34 33 33 34 34 34 34 34 34 34 34 34 33 32
31 31 31 31 31 31 31 31 31 31 32 32 32 32 32 32 32 32 33 33 34 35 34 34 34 33 33 33 34 34 33 33 33 32 32 32 32 32 33 33 32 31 32
31 31 32 31 31 31 31 31 31 31 31 31 31 31 32 32 32 32 33 34 35 35 34 33 33 33 33 33 33 33 33 32 32 31 31 31 31 31 31 31 31 30 31
31 31 31 31 31 31 31 30 30 30 30 31 31 31 31 31 31 32 33 33 34 34 33 32 32 32 32 32 32 33 32 32 31 30 30 29 29 30 30 30 30 29 29
30 30 30 31 31 31 31 30 30 30 30 31 30 31 31 31 31 32 32 32 32 32 32 32 32 32 32 31 31 31 31 31 30 29 29 28 28 29 29 29 28 28 28
29 29 30 30 30 31 31 31 30 31 31 31 31 31 31 31 31 31 31 31 32 32 32 31 31 30 30 29 29 29 29 28 28 27 27 27 26 26 26 26 26 26 26
29 29 29 29 29 30 30 30 31 31 31 30 30 30 30 30 30 31 31 31 31 31 31 31 30 29 28 28 27 27 26 26 26 26 25 24 24 23 24 25 25 25 25
28 28 28 27 27 28 28 29 30 30 30 30 29 30 30 30 29 29 28 28 29 29 29 28 28 27 26 26 25 25 25 24 23 22 22 21 21 21 22 22 22 22 22

GEFSMW_500_meanwind_324.txt.gz
Wind_Speed
34 34 35 35 36 35 34 35 34 35 34 34 35 36 37 37 37 37 37 37 38 39 39 39 40 40 40 40 40 40 40 40 41 41 41 42 42 42 42 43 43 43 43
35 35 35 36 36 36 35 35 35 34 34 34 34 36 36 37 37 37 37 37 38 38 38 38 39 40 40 41 40 40 40 41 41 41 41 42 43 43 44 44 45 45 44
34 34 34 35 36 36 35 35 34 34 34 34 34 35 36 37 37 37 36 37 37 38 38 38 38 39 39 39 39 40 40 41 42 42 43 43 43 44 45 45 46 46 46
33 33 33 33 34 35 35 35 34 35 35 34 34 35 36 37 37 37 37 38 37 38 38 38 38 38 39 40 40 41 41 41 42 42 43 43 44 44 44 45 45 46 46
30 31 31 32 33 33 34 34 34 35 35 35 35 36 37 37 38 37 37 37 37 38 38 39 40 40 40 40 40 41 42 42 42 43 43 44 44 45 44 44 45 45 46
29 29 30 31 32 32 33 33 34 34 35 36 36 36 36 37 37 38 37 37 38 38 39 39 40 40 41 41 41 42 42 42 43 43 44 44 45 44 45 45 44 44 44
29 29 29 30 31 31 32 32 33 34 34 34 35 35 35 36 37 37 37 38 38 39 40 40 40 40 40 40 41 42 42 43 43 43 43 44 44 45 45 45 44 44 44
28 29 30 30 30 31 32 31 32 32 33 33 34 34 35 36 36 37 38 38 39 40 41 41 41 41 40 41 41 41 41 42 42 43 43 43 43 44 44 44 44 44 44
28 29 30 30 31 31 31 31 32 32 32 33 34 35 35 36 36 37 38 38 39 40 40 41 41 41 41 41 40 40 39 39 40 41 41 42 42 43 43 44 44 44 44
28 29 29 30 31 31 31 31 31 32 33 34 34 35 36 36 37 38 38 38 39 39 40 40 40 40 40 40 40 40 39 40 39 39 40 40 41 41 42 43 44 44 44
28 29 29 29 30 31 31 31 32 32 33 33 34 35 35 36 36 37 37 38 38 39 39 39 39 38 39 39 40 40 40 40 40 40 39 39 40 40 41 42 42 43 43
28 28 29 29 30 30 31 32 32 32 33 33 34 35 36 36 36 37 37 37 37 38 38 39 38 38 39 39 40 40 40 40 40 39 39 39 39 39 40 40 41 41 41
29 29 29 30 30 30 30 31 32 33 33 34 34 34 35 35 35 36 36 36 36 36 37 38 38 38 39 39 39 39 39 39 39 39 39 40 40 39 40 40 40 40 40
29 30 30 30 30 31 30 31 32 33 33 34 33 34 34 34 35 35 35 35 35 36 37 37 37 38 38 38 38 39 39 40 39 39 40 40 41 41 41 41 40 40 40
29 30 30 30 30 31 31 31 31 32 33 33 33 33 33 34 34 34 35 35 35 36 36 37 37 38 38 38 38 39 40 40 40 40 40 41 41 41 40 40 39 39 40
30 30 30 30 31 31 31 31 31 31 32 32 33 33 34 34 34 35 35 35 35 35 36 36 36 37 38 38 39 39 39 40 40 40 40 40 40 39 39 39 39 39 39
30 30 30 31 31 31 31 31 32 32 32 32 33 34 34 34 35 35 36 35 35 35 35 35 36 37 38 38 38 39 39 39 38 38 38 38 38 37 37 37 37 37 37
29 30 31 31 31 31 31 32 32 32 32 32 33 33 34 34 35 35 35 35 35 35 35 36 37 37 37 37 37 37 37 36 36 36 36 36 36 36 35 35 35 35 35
30 29 30 31 31 31 32 32 32 32 32 32 33 33 34 34 34 34 34 34 35 35 36 36 36 36 36 35 35 35 35 35 34 34 34 34 34 34 33 33 33 33 34
31 30 30 31 31 32 32 32 32 31 31 32 32 32 33 33 33 34 34 35 35 35 36 35 35 36 35 35 35 35 35 34 33 33 33 33 32 32 32 32 32 33 34
31 31 30 31 31 32 33 33 32 32 32 32 32 32 32 32 33 33 34 34 34 35 35 35 34 34 34 34 34 33 33 33 33 33 32 32 31 31 32 32 31 32 32
30 31 31 31 32 33 33 34 33 33 33 32 32 32 32 32 32 32 33 34 34 34 34 34 33 33 33 33 33 33 33 32 32 31 31 31 30 30 31 30 30 30 31
29 30 31 32 33 33 33 34 34 34 33 33 33 32 33 33 33 33 33 33 34 34 34 33 33 33 33 32 32 32 31 31 30 30 30 30 30 30 30 30 30 30 30
27 29 30 31 32 32 33 33 33 34 34 33 33 33 33 33 32 32 33 33 33 34 34 33 33 33 32 31 31 31 30 30 30 29 29 30 30 29 29 29 29 29 29
27 27 28 29 30 30 30 30 31 32 32 32 33 33 32 32 31 31 32 31 31 31 31 32 31 31 30 30 30 29 30 30 30 30 30 30 29 29 28 28 28 28 28
25 25 25 25 26 27 28 29 28 29 29 30 30 30 31 31 31 30 30 29 30 30 30 31 30 30 30 29 29 29 28 29 29 29 29 28 28 27 27 27 27 27 26